Showing default

ZY-1 02E, 50465

Orbit data source: Space-Track

ZY-1 02E, 50465 is a payload satellite owned by CRESDA (CN) in SSO that was launched on Sun, 26 Dec 2021 UTC via a CHANG ZHENG 4C launch vehicle from the Taiyaun Space Center, China (TSC). Payload-class satellites include a variety of spacecraft equipped with specific instruments for various scientific and technological missions. These include communications satellites like Starlink; space stations such as the ISS; scientific satellites like the Hubble; Earth observation satellites from companies like Planet Labs, Umbra, and HawkEye 360; GPS; miniature CubeSats for education and research; and military/defense satellites.

Loading next visibility...
Identifier
50465, 2021-131A
Orbit
SSO
Country
Flag of CNCN / PRC
Related business
Manufacturer
CAST
Mission
Operational Civil Imaging
Bus & Motor
ZY, AOCS 20N
Mass
1,840 kg wet, ~1,700 kg dry
Launch date (UTC)
2021-12-26 (4 years ago)
Launch vehicle
CHANG ZHENG 4C
Launch site
Taiyaun Space Center, China (TSC)
Object type
Payload
Rocket body
Debris
Shape & HBR
Box + 1 Pan, 4.5 m
Radar Cross Section
9.469 m², Large (>1 m²)

Expand to show TLE details & history
Last TLE update: 5 hours ago

TLE from 5 hours ago
0 ZY-1 02E
1 50465U 21131A   26165.91746054 -.00000141  00000-0 -34058-4 0  9996
2 50465  98.4440 243.0545 0001927 104.9090 255.2309 14.35395450234099
Epoch: 2026-06-14T22:01Z
TLE epoch observation values (Epoch: 2026-06-14T22:01:08.590Z)
Latitude
-0.00006°
Longitude
9.5574°
Altitude
777.048 km
Speed
7.465 km/s
True Right ascension
16h 12m 13s
True Declination
0° 00' 00"
Sunlit
Object was in full shadow at epoch
Visualization orbit readout
Latitude
Unknown
Longitude
Unknown
Altitude
Unknown
Speed
Unknown
Apparent Right ascension
Unknown
Apparent Declination
Unknown
Sunlit
N/A
Visualization observer readout
Local Sidereal Time
13:22:15
Azimuth
Unknown
Elevation
Unknown
Doppler factor
Unknown
Orbital elements
Apogee altitude
772.256 km
Perigee altitude
769.5 km
Semi-major axis
7,149.015 km
Eccentricity
0.00019
Inclination
98.444°
RAAN
243.0545°
Arg. of periapsis
104.909°
True anomaly
255.20955°
Mean anomaly
255.2309°
Eccentric anomaly
255.22022°
Mean motion
3.59066 °/min
Orbital period
100.26 mins
BSTAR
-0.000034058
Loading maneuver chart data...
Computing Atmospheric mass density...
Loading historical data...
Loading historical data...
Loading historical data...
Loading historical data...
Loading historical data...
Loading historical data...
Loading historical data...
Other satellites on launch #131 in the year 2021 (2021-12-26 UTC)

Documentation

Showing up to 5 results
|